contact:dominique.lefevre@mio.osupytheas.fr, maurice.libes@osupytheas.fr, didier.mallarino@osupytheas.fr
Project:EMSO http://www.emso-fr.org/EMSO-France
Depth: 2436.0 m
Title:EMSO Ligure Ouest : Data MII capteur CSTAR
DateTime,Latitude,Longitude,Instrument_Serial,Reference_Counts,Signal_Counts,Corrected_Signal_raw_counts,Calculated_Beam_c_inverse_meters,Internal_thermistor_counts
DateTime,Latitude,Longitude,Instrument_Serial,Reference_Counts,Signal_Counts,Corrected_Signal_raw_counts,Calculated_Beam_c_inverse_meters,Internal_thermistor_counts
2022-02-05T00:02:15,42.805,6.029,CST-1368DR,4919,6180,13416,0.607,551
2022-02-05T00:05:16,42.805,6.029,CST-1368DR,4919,6178,13412,0.609,551
2022-02-05T00:08:18,42.805,6.029,CST-1368DR,4919,6179,13415,0.608,551
2022-02-05T00:11:19,42.805,6.029,CST-1368DR,4919,6178,13413,0.608,551
2022-02-05T00:14:21,42.805,6.029,CST-1368DR,4919,6179,13416,0.607,551
2022-02-05T00:17:23,42.805,6.029,CST-1368DR,4919,6179,13414,0.608,551
2022-02-05T00:20:24,42.805,6.029,CST-1368DR,4919,6179,13414,0.608,551
2022-02-05T00:23:26,42.805,6.029,CST-1368DR,4919,6179,13415,0.608,551
2022-02-05T00:26:27,42.805,6.029,CST-1368DR,4919,6178,13413,0.608,551
2022-02-05T00:29:29,42.805,6.029,CST-1368DR,4919,6179,13416,0.607,551
2022-02-05T00:32:31,42.805,6.029,CST-1368DR,4919,6179,13416,0.607,551
2022-02-05T00:35:32,42.805,6.029,CST-1368DR,4919,6179,13415,0.608,551
2022-02-05T00:38:34,42.805,6.029,CST-1368DR,4919,6179,13414,0.608,551
2022-02-05T00:41:35,42.805,6.029,CST-1368DR,4919,6178,13413,0.608,551
2022-02-05T00:44:37,42.805,6.029,CST-1368DR,4919,6179,13416,0.607,551
2022-02-05T00:47:38,42.805,6.029,CST-1368DR,4919,6179,13414,0.608,551
2022-02-05T00:50:40,42.805,6.029,CST-1368DR,4919,6179,13416,0.607,551
2022-02-05T00:53:42,42.805,6.029,CST-1368DR,4919,6178,13413,0.608,551
2022-02-05T00:56:43,42.805,6.029,CST-1368DR,4919,6178,13413,0.608,551
2022-02-05T00:59:45,42.805,6.029,CST-1368DR,4919,6179,13415,0.608,551
2022-02-05T01:02:46,42.805,6.029,CST-1368DR,4919,6179,13414,0.608,551
2022-02-05T01:05:48,42.805,6.029,CST-1368DR,4919,6179,13414,0.608,550
2022-02-05T01:08:50,42.805,6.029,CST-1368DR,4919,6177,13411,0.609,551
2022-02-05T01:11:51,42.805,6.029,CST-1368DR,4919,6179,13414,0.608,551
2022-02-05T01:14:53,42.805,6.029,CST-1368DR,4919,6179,13414,0.608,551
2022-02-05T01:17:54,42.805,6.029,CST-1368DR,4919,6179,13414,0.608,551
2022-02-05T01:20:56,42.805,6.029,CST-1368DR,4919,6178,13413,0.608,551
2022-02-05T01:23:57,42.805,6.029,CST-1368DR,4919,6177,13410,0.609,551
2022-02-05T01:26:59,42.805,6.029,CST-1368DR,4919,6178,13413,0.608,551
2022-02-05T01:30:01,42.805,6.029,CST-1368DR,4919,6178,13412,0.609,551
2022-02-05T01:33:02,42.805,6.029,CST-1368DR,4919,6178,13412,0.609,551
2022-02-05T01:36:04,42.805,6.029,CST-1368DR,4919,6178,13413,0.608,551
2022-02-05T01:39:05,42.805,6.029,CST-1368DR,4919,6178,13413,0.608,551
2022-02-05T01:42:07,42.805,6.029,CST-1368DR,4919,6178,13413,0.608,551
2022-02-05T01:45:08,42.805,6.029,CST-1368DR,4919,6178,13413,0.608,551
2022-02-05T01:48:10,42.805,6.029,CST-1368DR,4919,6178,13413,0.608,551
2022-02-05T01:51:12,42.805,6.029,CST-1368DR,4919,6178,13413,0.608,551
2022-02-05T01:54:13,42.805,6.029,CST-1368DR,4919,6178,13413,0.608,551
2022-02-05T01:57:15,42.805,6.029,CST-1368DR,4919,6178,13413,0.608,551
2022-02-05T02:00:16,42.805,6.029,CST-1368DR,4919,6178,13413,0.608,551
2022-02-05T02:03:18,42.805,6.029,CST-1368DR,4918,6177,13413,0.608,551
2022-02-05T02:06:20,42.805,6.029,CST-1368DR,4918,6178,13416,0.607,551
2022-02-05T02:09:21,42.805,6.029,CST-1368DR,4919,6178,13413,0.608,551
2022-02-05T02:12:23,42.805,6.029,CST-1368DR,4918,6178,13416,0.607,551
2022-02-05T02:15:24,42.805,6.029,CST-1368DR,4919,6177,13411,0.609,551
2022-02-05T02:18:26,42.805,6.029,CST-1368DR,4919,6177,13411,0.609,551
2022-02-05T02:21:27,42.805,6.029,CST-1368DR,4919,6178,13413,0.608,551
2022-02-05T02:24:29,42.805,6.029,CST-1368DR,4918,6178,13415,0.608,551
2022-02-05T02:27:31,42.805,6.029,CST-1368DR,4918,6178,13415,0.608,551
2022-02-05T02:30:32,42.805,6.029,CST-1368DR,4919,6178,13412,0.609,551
2022-02-05T02:33:34,42.805,6.029,CST-1368DR,4919,6178,13413,0.608,551
2022-02-05T02:36:35,42.805,6.029,CST-1368DR,4918,6178,13414,0.608,551
2022-02-05T02:39:37,42.805,6.029,CST-1368DR,4919,6178,13412,0.609,551
2022-02-05T02:42:39,42.805,6.029,CST-1368DR,4918,6178,13416,0.607,551
2022-02-05T02:45:40,42.805,6.029,CST-1368DR,4919,6178,13413,0.608,551
2022-02-05T02:48:42,42.805,6.029,CST-1368DR,4918,6177,13414,0.608,551
2022-02-05T02:51:43,42.805,6.029,CST-1368DR,4918,6178,13415,0.608,551
2022-02-05T02:54:45,42.805,6.029,CST-1368DR,4918,6177,13413,0.608,551
2022-02-05T02:57:46,42.805,6.029,CST-1368DR,4918,6178,13415,0.608,551
2022-02-05T03:00:48,42.805,6.029,CST-1368DR,4918,6178,13415,0.608,551
2022-02-05T03:03:50,42.805,6.029,CST-1368DR,4918,6178,13416,0.607,551
2022-02-05T03:06:51,42.805,6.029,CST-1368DR,4918,6178,13415,0.608,551
2022-02-05T03:09:53,42.805,6.029,CST-1368DR,4918,6177,13414,0.608,551
2022-02-05T03:12:54,42.805,6.029,CST-1368DR,4918,6177,13414,0.608,551
2022-02-05T03:15:56,42.805,6.029,CST-1368DR,4918,6177,13413,0.608,551
2022-02-05T03:18:57,42.805,6.029,CST-1368DR,4918,6177,13413,0.608,551
2022-02-05T03:21:59,42.805,6.029,CST-1368DR,4918,6178,13415,0.608,551
2022-02-05T03:25:01,42.805,6.029,CST-1368DR,4918,6178,13415,0.608,551
2022-02-05T03:28:02,42.805,6.029,CST-1368DR,4918,6176,13412,0.609,551
2022-02-05T03:31:04,42.805,6.029,CST-1368DR,4918,6177,13413,0.608,551
2022-02-05T03:34:05,42.805,6.029,CST-1368DR,4918,6178,13414,0.608,551
2022-02-05T03:37:07,42.805,6.029,CST-1368DR,4918,6178,13414,0.608,551
2022-02-05T03:40:09,42.805,6.029,CST-1368DR,4918,6178,13414,0.608,551
2022-02-05T03:43:10,42.805,6.029,CST-1368DR,4918,6178,13415,0.608,551
2022-02-05T03:46:12,42.805,6.029,CST-1368DR,4918,6177,13414,0.608,551
2022-02-05T03:49:13,42.805,6.029,CST-1368DR,4918,6178,13416,0.607,551
2022-02-05T03:52:15,42.805,6.029,CST-1368DR,4918,6178,13415,0.608,551
2022-02-05T03:55:16,42.805,6.029,CST-1368DR,4918,6178,13416,0.607,551
2022-02-05T03:58:18,42.805,6.029,CST-1368DR,4918,6178,13415,0.608,551
2022-02-05T04:01:20,42.805,6.029,CST-1368DR,4918,6178,13415,0.608,551
2022-02-05T04:04:21,42.805,6.029,CST-1368DR,4918,6178,13415,0.608,551
2022-02-05T04:07:23,42.805,6.029,CST-1368DR,4918,6178,13414,0.608,551
2022-02-05T04:10:24,42.805,6.029,CST-1368DR,4918,6178,13416,0.607,551
2022-02-05T04:13:26,42.805,6.029,CST-1368DR,4918,6179,13417,0.607,551
2022-02-05T04:16:28,42.805,6.029,CST-1368DR,4918,6178,13416,0.607,551
2022-02-05T04:19:29,42.805,6.029,CST-1368DR,4918,6179,13417,0.607,551
2022-02-05T04:22:31,42.805,6.029,CST-1368DR,4918,6179,13417,0.607,551
2022-02-05T04:25:32,42.805,6.029,CST-1368DR,4918,6179,13417,0.607,551
2022-02-05T04:28:34,42.805,6.029,CST-1368DR,4918,6179,13417,0.607,551
2022-02-05T04:31:35,42.805,6.029,CST-1368DR,4918,6178,13416,0.607,551
2022-02-05T04:34:37,42.805,6.029,CST-1368DR,4918,6178,13415,0.608,551
2022-02-05T04:37:39,42.805,6.029,CST-1368DR,4918,6178,13416,0.607,551
2022-02-05T04:40:40,42.805,6.029,CST-1368DR,4918,6178,13416,0.607,551
2022-02-05T04:43:42,42.805,6.029,CST-1368DR,4918,6178,13416,0.607,551
2022-02-05T04:46:43,42.805,6.029,CST-1368DR,4918,6178,13415,0.608,551
2022-02-05T04:49:45,42.805,6.029,CST-1368DR,4918,6178,13416,0.607,551
2022-02-05T04:52:47,42.805,6.029,CST-1368DR,4918,6178,13415,0.608,551
2022-02-05T04:55:48,42.805,6.029,CST-1368DR,4918,6178,13416,0.607,551
2022-02-05T04:58:50,42.805,6.029,CST-1368DR,4918,6178,13415,0.608,551
2022-02-05T05:01:51,42.805,6.029,CST-1368DR,4918,6178,13415,0.608,550
2022-02-05T05:04:53,42.805,6.029,CST-1368DR,4918,6179,13417,0.607,551
2022-02-05T05:07:54,42.805,6.029,CST-1368DR,4918,6178,13415,0.608,551
2022-02-05T05:10:56,42.805,6.029,CST-1368DR,4918,6178,13414,0.608,551
2022-02-05T05:13:58,42.805,6.029,CST-1368DR,4918,6178,13415,0.608,551
2022-02-05T05:16:59,42.805,6.029,CST-1368DR,4918,6178,13415,0.608,551
2022-02-05T05:20:01,42.805,6.029,CST-1368DR,4918,6178,13416,0.607,551
2022-02-05T05:23:02,42.805,6.029,CST-1368DR,4918,6178,13415,0.608,551
2022-02-05T05:26:04,42.805,6.029,CST-1368DR,4918,6178,13414,0.608,551
2022-02-05T05:29:05,42.805,6.029,CST-1368DR,4918,6177,13414,0.608,551
2022-02-05T05:32:07,42.805,6.029,CST-1368DR,4918,6178,13415,0.608,551
2022-02-05T05:35:09,42.805,6.029,CST-1368DR,4918,6178,13415,0.608,551
2022-02-05T05:38:10,42.805,6.029,CST-1368DR,4918,6177,13413,0.608,551
2022-02-05T05:41:12,42.805,6.029,CST-1368DR,4918,6178,13415,0.608,551
2022-02-05T05:44:13,42.805,6.029,CST-1368DR,4918,6178,13416,0.607,551
2022-02-05T05:47:15,42.805,6.029,CST-1368DR,4918,6178,13415,0.608,551
2022-02-05T05:50:17,42.805,6.029,CST-1368DR,4918,6178,13415,0.608,551
2022-02-05T05:53:18,42.805,6.029,CST-1368DR,4918,6178,13416,0.607,551
2022-02-05T05:56:20,42.805,6.029,CST-1368DR,4918,6179,13417,0.607,551
2022-02-05T05:59:21,42.805,6.029,CST-1368DR,4918,6179,13417,0.607,551
2022-02-05T06:02:23,42.805,6.029,CST-1368DR,4918,6178,13416,0.607,551
2022-02-05T06:05:24,42.805,6.029,CST-1368DR,4918,6178,13416,0.607,551
2022-02-05T06:08:26,42.805,6.029,CST-1368DR,4918,6178,13415,0.608,551
2022-02-05T06:11:28,42.805,6.029,CST-1368DR,4918,6178,13415,0.608,551
2022-02-05T06:14:29,42.805,6.029,CST-1368DR,4918,6178,13416,0.607,551
2022-02-05T06:17:31,42.805,6.029,CST-1368DR,4918,6178,13415,0.608,551
2022-02-05T06:20:32,42.805,6.029,CST-1368DR,4918,6178,13415,0.608,551
2022-02-05T06:23:34,42.805,6.029,CST-1368DR,4918,6178,13415,0.608,551
2022-02-05T06:26:35,42.805,6.029,CST-1368DR,4918,6178,13415,0.608,551
2022-02-05T06:29:37,42.805,6.029,CST-1368DR,4918,6178,13415,0.608,551
2022-02-05T06:32:39,42.805,6.029,CST-1368DR,4918,6178,13416,0.607,551
2022-02-05T06:35:40,42.805,6.029,CST-1368DR,4918,6178,13415,0.608,551
2022-02-05T06:38:42,42.805,6.029,CST-1368DR,4918,6178,13415,0.608,551
2022-02-05T06:41:43,42.805,6.029,CST-1368DR,4918,6178,13415,0.608,551
2022-02-05T06:44:45,42.805,6.029,CST-1368DR,4918,6177,13414,0.608,551
2022-02-05T06:47:47,42.805,6.029,CST-1368DR,4918,6178,13415,0.608,551
2022-02-05T06:50:48,42.805,6.029,CST-1368DR,4918,6177,13413,0.608,551
2022-02-05T06:53:50,42.805,6.029,CST-1368DR,4918,6178,13415,0.608,551
2022-02-05T06:56:51,42.805,6.029,CST-1368DR,4918,6178,13416,0.607,551
2022-02-05T06:59:53,42.805,6.029,CST-1368DR,4918,6176,13411,0.609,551
2022-02-05T07:02:54,42.805,6.029,CST-1368DR,4918,6178,13414,0.608,551
2022-02-05T07:05:56,42.805,6.029,CST-1368DR,4918,6178,13415,0.608,551
2022-02-05T07:08:58,42.805,6.029,CST-1368DR,4918,6178,13416,0.607,551
2022-02-05T07:11:59,42.805,6.029,CST-1368DR,4918,6178,13415,0.608,551
2022-02-05T07:15:01,42.805,6.029,CST-1368DR,4918,6178,13414,0.608,551
2022-02-05T07:18:02,42.805,6.029,CST-1368DR,4918,6178,13415,0.608,551
2022-02-05T07:21:04,42.805,6.029,CST-1368DR,4918,6177,13413,0.608,551
2022-02-05T07:24:06,42.805,6.029,CST-1368DR,4918,6177,13413,0.608,551
2022-02-05T07:27:07,42.805,6.029,CST-1368DR,4918,6178,13415,0.608,551
2022-02-05T07:30:09,42.805,6.029,CST-1368DR,4918,6178,13415,0.608,551
2022-02-05T07:33:10,42.805,6.029,CST-1368DR,4918,6178,13414,0.608,551
2022-02-05T07:36:12,42.805,6.029,CST-1368DR,4918,6178,13414,0.608,551
2022-02-05T07:39:13,42.805,6.029,CST-1368DR,4918,6176,13411,0.609,551
2022-02-05T07:42:15,42.805,6.029,CST-1368DR,4918,6177,13414,0.608,551
2022-02-05T07:45:17,42.805,6.029,CST-1368DR,4918,6177,13414,0.608,551
2022-02-05T07:48:18,42.805,6.029,CST-1368DR,4918,6178,13414,0.608,551
2022-02-05T07:51:20,42.805,6.029,CST-1368DR,4918,6178,13415,0.608,551
2022-02-05T07:54:21,42.805,6.029,CST-1368DR,4918,6177,13413,0.608,551
2022-02-05T07:57:23,42.805,6.029,CST-1368DR,4918,6178,13415,0.608,551
2022-02-05T08:00:24,42.805,6.029,CST-1368DR,4918,6178,13415,0.608,551
2022-02-05T08:03:26,42.805,6.029,CST-1368DR,4918,6178,13415,0.608,551
2022-02-05T08:06:28,42.805,6.029,CST-1368DR,4918,6178,13415,0.608,551
2022-02-05T08:09:29,42.805,6.029,CST-1368DR,4918,6178,13414,0.608,551
2022-02-05T08:12:31,42.805,6.029,CST-1368DR,4918,6177,13414,0.608,551
2022-02-05T08:15:32,42.805,6.029,CST-1368DR,4918,6178,13415,0.608,551
2022-02-05T08:18:34,42.805,6.029,CST-1368DR,4918,6177,13414,0.608,551
2022-02-05T08:21:36,42.805,6.029,CST-1368DR,4918,6177,13414,0.608,551
2022-02-05T08:24:37,42.805,6.029,CST-1368DR,4918,6178,13414,0.608,551
2022-02-05T08:27:39,42.805,6.029,CST-1368DR,4918,6178,13414,0.608,551
2022-02-05T08:30:40,42.805,6.029,CST-1368DR,4918,6178,13414,0.608,551
2022-02-05T08:33:42,42.805,6.029,CST-1368DR,4918,6177,13414,0.608,551
2022-02-05T08:36:43,42.805,6.029,CST-1368DR,4918,6178,13414,0.608,551
2022-02-05T08:39:45,42.805,6.029,CST-1368DR,4918,6178,13414,0.608,551
2022-02-05T08:42:47,42.805,6.029,CST-1368DR,4918,6178,13414,0.608,551
2022-02-05T08:45:48,42.805,6.029,CST-1368DR,4918,6178,13415,0.608,551
2022-02-05T08:48:50,42.805,6.029,CST-1368DR,4918,6178,13415,0.608,551
2022-02-05T08:51:51,42.805,6.029,CST-1368DR,4918,6177,13413,0.608,551
2022-02-05T08:54:53,42.805,6.029,CST-1368DR,4918,6177,13413,0.608,551
2022-02-05T08:57:55,42.805,6.029,CST-1368DR,4918,6177,13413,0.608,551
2022-02-05T09:00:56,42.805,6.029,CST-1368DR,4918,6177,13412,0.609,551
2022-02-05T09:03:58,42.805,6.029,CST-1368DR,4918,6177,13414,0.608,551
2022-02-05T09:06:59,42.805,6.029,CST-1368DR,4918,6178,13414,0.608,551
2022-02-05T09:10:01,42.805,6.029,CST-1368DR,4918,6177,13413,0.608,551
2022-02-05T09:13:02,42.805,6.029,CST-1368DR,4918,6177,13412,0.609,551
2022-02-05T09:16:04,42.805,6.029,CST-1368DR,4918,6177,13413,0.608,551
2022-02-05T09:19:06,42.805,6.029,CST-1368DR,4918,6177,13412,0.609,551
2022-02-05T09:22:07,42.805,6.029,CST-1368DR,4918,6177,13413,0.608,551
2022-02-05T09:25:09,42.805,6.029,CST-1368DR,4918,6177,13413,0.608,551
2022-02-05T09:28:10,42.805,6.029,CST-1368DR,4918,6177,13414,0.608,551
2022-02-05T09:31:12,42.805,6.029,CST-1368DR,4918,6177,13413,0.608,551
2022-02-05T09:34:13,42.805,6.029,CST-1368DR,4918,6177,13412,0.609,551
2022-02-05T09:37:15,42.805,6.029,CST-1368DR,4918,6177,13412,0.609,550
2022-02-05T09:40:17,42.805,6.029,CST-1368DR,4918,6178,13414,0.608,551
2022-02-05T09:43:18,42.805,6.029,CST-1368DR,4918,6177,13414,0.608,551
2022-02-05T09:46:20,42.805,6.029,CST-1368DR,4918,6177,13412,0.609,551
2022-02-05T09:49:21,42.805,6.029,CST-1368DR,4918,6177,13413,0.608,550
2022-02-05T09:52:23,42.805,6.029,CST-1368DR,4918,6178,13414,0.608,551
2022-02-05T09:55:25,42.805,6.029,CST-1368DR,4918,6177,13413,0.608,551
2022-02-05T09:58:26,42.805,6.029,CST-1368DR,4918,6177,13414,0.608,551
2022-02-05T10:01:28,42.805,6.029,CST-1368DR,4918,6177,13413,0.608,551
2022-02-05T10:04:29,42.805,6.029,CST-1368DR,4918,6177,13413,0.608,551
2022-02-05T10:07:31,42.805,6.029,CST-1368DR,4918,6177,13413,0.608,551
2022-02-05T10:10:32,42.805,6.029,CST-1368DR,4918,6177,13414,0.608,551
2022-02-05T10:13:34,42.805,6.029,CST-1368DR,4918,6178,13414,0.608,550
2022-02-05T10:16:36,42.805,6.029,CST-1368DR,4918,6178,13415,0.608,551
2022-02-05T10:19:37,42.805,6.029,CST-1368DR,4918,6177,13414,0.608,551
2022-02-05T10:22:39,42.805,6.029,CST-1368DR,4918,6178,13414,0.608,551
2022-02-05T10:25:40,42.805,6.029,CST-1368DR,4918,6177,13414,0.608,551
2022-02-05T10:28:42,42.805,6.029,CST-1368DR,4918,6178,13415,0.608,551
2022-02-05T10:31:43,42.805,6.029,CST-1368DR,4918,6178,13415,0.608,551
2022-02-05T10:34:45,42.805,6.029,CST-1368DR,4918,6177,13413,0.608,551
2022-02-05T10:37:47,42.805,6.029,CST-1368DR,4918,6177,13414,0.608,551
2022-02-05T10:40:48,42.805,6.029,CST-1368DR,4918,6177,13413,0.608,551
2022-02-05T10:43:50,42.805,6.029,CST-1368DR,4918,6177,13414,0.608,551
2022-02-05T10:46:51,42.805,6.029,CST-1368DR,4918,6177,13413,0.608,551
2022-02-05T10:49:53,42.805,6.029,CST-1368DR,4918,6178,13414,0.608,551
2022-02-05T10:52:55,42.805,6.029,CST-1368DR,4918,6177,13413,0.608,551
2022-02-05T10:55:56,42.805,6.029,CST-1368DR,4918,6177,13413,0.608,551
2022-02-05T10:58:58,42.805,6.029,CST-1368DR,4918,6177,13414,0.608,551
2022-02-05T11:01:59,42.805,6.029,CST-1368DR,4918,6177,13414,0.608,551
2022-02-05T11:05:01,42.805,6.029,CST-1368DR,4918,6176,13412,0.609,551
2022-02-05T11:08:02,42.805,6.029,CST-1368DR,4918,6177,13414,0.608,551
2022-02-05T11:11:04,42.805,6.029,CST-1368DR,4918,6177,13413,0.608,551
2022-02-05T11:14:06,42.805,6.029,CST-1368DR,4918,6178,13414,0.608,551
2022-02-05T11:17:07,42.805,6.029,CST-1368DR,4918,6177,13414,0.608,551
2022-02-05T11:20:09,42.805,6.029,CST-1368DR,4918,6178,13414,0.608,551
2022-02-05T11:23:10,42.805,6.029,CST-1368DR,4918,6178,13415,0.608,551
2022-02-05T11:26:12,42.805,6.029,CST-1368DR,4918,6178,13414,0.608,551
2022-02-05T11:29:14,42.805,6.029,CST-1368DR,4918,6178,13414,0.608,551
2022-02-05T11:32:15,42.805,6.029,CST-1368DR,4918,6178,13415,0.608,551
2022-02-05T11:35:17,42.805,6.029,CST-1368DR,4918,6178,13414,0.608,551
2022-02-05T11:38:18,42.805,6.029,CST-1368DR,4918,6178,13414,0.608,551
2022-02-05T11:41:20,42.805,6.029,CST-1368DR,4918,6175,13410,0.609,551
2022-02-05T11:44:21,42.805,6.029,CST-1368DR,4918,6177,13413,0.608,551
2022-02-05T11:47:23,42.805,6.029,CST-1368DR,4918,6177,13412,0.609,551
2022-02-05T11:50:25,42.805,6.029,CST-1368DR,4918,6177,13414,0.608,551
2022-02-05T11:53:26,42.805,6.029,CST-1368DR,4918,6177,13414,0.608,551
2022-02-05T11:56:28,42.805,6.029,CST-1368DR,4918,6177,13413,0.608,551
2022-02-05T11:59:29,42.805,6.029,CST-1368DR,4918,6177,13414,0.608,551
2022-02-05T12:02:31,42.805,6.029,CST-1368DR,4918,6178,13414,0.608,551
2022-02-05T12:05:33,42.805,6.029,CST-1368DR,4918,6177,13414,0.608,551
2022-02-05T12:08:34,42.805,6.029,CST-1368DR,4918,6177,13413,0.608,551
2022-02-05T12:11:36,42.805,6.029,CST-1368DR,4918,6177,13414,0.608,551
2022-02-05T12:14:37,42.805,6.029,CST-1368DR,4918,6177,13412,0.609,551
2022-02-05T12:17:39,42.805,6.029,CST-1368DR,4918,6177,13414,0.608,551
2022-02-05T12:20:40,42.805,6.029,CST-1368DR,4918,6177,13413,0.608,551
2022-02-05T12:23:42,42.805,6.029,CST-1368DR,4918,6177,13412,0.609,551
2022-02-05T12:26:44,42.805,6.029,CST-1368DR,4918,6176,13411,0.609,551
2022-02-05T12:29:45,42.805,6.029,CST-1368DR,4918,6177,13413,0.608,551
2022-02-05T12:32:47,42.805,6.029,CST-1368DR,4918,6177,13413,0.608,551
2022-02-05T12:35:48,42.805,6.029,CST-1368DR,4918,6177,13413,0.608,551
2022-02-05T12:38:50,42.805,6.029,CST-1368DR,4918,6177,13413,0.608,551
2022-02-05T12:41:51,42.805,6.029,CST-1368DR,4918,6177,13413,0.608,550
2022-02-05T12:44:53,42.805,6.029,CST-1368DR,4918,6177,13413,0.608,551
2022-02-05T12:47:55,42.805,6.029,CST-1368DR,4918,6177,13413,0.608,551
2022-02-05T12:50:56,42.805,6.029,CST-1368DR,4918,6177,13413,0.608,551
2022-02-05T12:53:58,42.805,6.029,CST-1368DR,4918,6177,13413,0.608,551
2022-02-05T12:56:59,42.805,6.029,CST-1368DR,4918,6177,13412,0.609,551
2022-02-05T13:00:01,42.805,6.029,CST-1368DR,4918,6177,13412,0.609,551
2022-02-05T13:03:03,42.805,6.029,CST-1368DR,4918,6177,13413,0.608,551
2022-02-05T13:06:04,42.805,6.029,CST-1368DR,4918,6177,13412,0.609,551
2022-02-05T13:09:06,42.805,6.029,CST-1368DR,4918,6177,13413,0.608,551
2022-02-05T13:12:07,42.805,6.029,CST-1368DR,4918,6177,13412,0.609,551
2022-02-05T13:15:09,42.805,6.029,CST-1368DR,4918,6177,13413,0.608,551
2022-02-05T13:18:10,42.805,6.029,CST-1368DR,4918,6172,13402,0.612,551
2022-02-05T13:21:12,42.805,6.029,CST-1368DR,4918,6176,13412,0.609,551
2022-02-05T13:24:14,42.805,6.029,CST-1368DR,4918,6177,13413,0.608,551
2022-02-05T13:27:15,42.805,6.029,CST-1368DR,4918,6177,13412,0.609,551
2022-02-05T13:30:17,42.805,6.029,CST-1368DR,4918,6177,13414,0.608,551
2022-02-05T13:33:18,42.805,6.029,CST-1368DR,4918,6176,13412,0.609,551
2022-02-05T13:36:20,42.805,6.029,CST-1368DR,4918,6176,13412,0.609,551
2022-02-05T13:39:22,42.805,6.029,CST-1368DR,4918,6177,13414,0.608,551
2022-02-05T13:42:23,42.805,6.029,CST-1368DR,4918,6177,13412,0.609,551
2022-02-05T13:45:25,42.805,6.029,CST-1368DR,4918,6177,13413,0.608,551
2022-02-05T13:48:26,42.805,6.029,CST-1368DR,4918,6177,13413,0.608,551
2022-02-05T13:51:28,42.805,6.029,CST-1368DR,4918,6176,13412,0.609,551
2022-02-05T13:54:29,42.805,6.029,CST-1368DR,4917,6176,13414,0.608,551
2022-02-05T13:57:31,42.805,6.029,CST-1368DR,4918,6176,13412,0.609,551
2022-02-05T14:00:33,42.805,6.029,CST-1368DR,4918,6177,13412,0.609,551
2022-02-05T14:03:34,42.805,6.029,CST-1368DR,4918,6177,13412,0.609,551
2022-02-05T14:06:36,42.805,6.029,CST-1368DR,4918,6176,13412,0.609,551
2022-02-05T14:09:37,42.805,6.029,CST-1368DR,4918,6176,13411,0.609,551
2022-02-05T14:12:39,42.805,6.029,CST-1368DR,4918,6177,13412,0.609,551
2022-02-05T14:15:40,42.805,6.029,CST-1368DR,4917,6176,13413,0.608,551
2022-02-05T14:18:42,42.805,6.029,CST-1368DR,4918,6177,13412,0.609,551
2022-02-05T14:21:44,42.805,6.029,CST-1368DR,4918,6177,13412,0.609,551
2022-02-05T14:24:45,42.805,6.029,CST-1368DR,4918,6176,13412,0.609,551
2022-02-05T14:27:47,42.805,6.029,CST-1368DR,4918,6176,13412,0.609,551
2022-02-05T14:30:48,42.805,6.029,CST-1368DR,4918,6176,13412,0.609,551
2022-02-05T14:33:50,42.805,6.029,CST-1368DR,4918,6176,13412,0.609,551
2022-02-05T14:36:52,42.805,6.029,CST-1368DR,4918,6177,13413,0.608,551
2022-02-05T14:39:53,42.805,6.029,CST-1368DR,4917,6176,13414,0.608,551
2022-02-05T14:42:55,42.805,6.029,CST-1368DR,4917,6176,13414,0.608,551
2022-02-05T14:45:56,42.805,6.029,CST-1368DR,4917,6176,13413,0.608,551
2022-02-05T14:48:58,42.805,6.029,CST-1368DR,4917,6175,13412,0.609,551
2022-02-05T14:51:59,42.805,6.029,CST-1368DR,4917,6176,13413,0.608,551
2022-02-05T14:55:01,42.805,6.029,CST-1368DR,4917,6176,13414,0.608,551
2022-02-05T14:58:03,42.805,6.029,CST-1368DR,4917,6177,13415,0.608,551
2022-02-05T15:01:04,42.805,6.029,CST-1368DR,4917,6176,13414,0.608,551
2022-02-05T15:04:06,42.805,6.029,CST-1368DR,4917,6176,13414,0.608,551
2022-02-05T15:07:07,42.805,6.029,CST-1368DR,4917,6176,13414,0.608,551
2022-02-05T15:10:09,42.805,6.029,CST-1368DR,4917,6176,13413,0.608,551
2022-02-05T15:13:10,42.805,6.029,CST-1368DR,4917,6176,13414,0.608,551
2022-02-05T15:16:12,42.805,6.029,CST-1368DR,4917,6176,13414,0.608,551
2022-02-05T15:19:14,42.805,6.029,CST-1368DR,4917,6175,13412,0.609,551
2022-02-05T15:22:15,42.805,6.029,CST-1368DR,4917,6175,13411,0.609,551
2022-02-05T15:25:17,42.805,6.029,CST-1368DR,4917,6175,13411,0.609,551
2022-02-05T15:28:18,42.805,6.029,CST-1368DR,4917,6176,13414,0.608,551
2022-02-05T15:31:20,42.805,6.029,CST-1368DR,4917,6176,13414,0.608,551
2022-02-05T15:34:22,42.805,6.029,CST-1368DR,4917,6176,13414,0.608,551
2022-02-05T15:37:23,42.805,6.029,CST-1368DR,4917,6175,13412,0.609,551
2022-02-05T15:40:25,42.805,6.029,CST-1368DR,4917,6176,13413,0.608,551
2022-02-05T15:43:26,42.805,6.029,CST-1368DR,4917,6176,13413,0.608,551
2022-02-05T15:46:28,42.805,6.029,CST-1368DR,4917,6175,13412,0.609,551
2022-02-05T15:49:29,42.805,6.029,CST-1368DR,4917,6175,13411,0.609,551
2022-02-05T15:52:31,42.805,6.029,CST-1368DR,4917,6176,13413,0.608,551
2022-02-05T15:55:33,42.805,6.029,CST-1368DR,4917,6175,13412,0.609,551
2022-02-05T15:58:34,42.805,6.029,CST-1368DR,4917,6175,13410,0.609,551
2022-02-05T16:01:36,42.805,6.029,CST-1368DR,4917,6175,13412,0.609,551
2022-02-05T16:04:37,42.805,6.029,CST-1368DR,4917,6175,13411,0.609,551
2022-02-05T16:07:39,42.805,6.029,CST-1368DR,4917,6174,13409,0.609,551
2022-02-05T16:10:41,42.805,6.029,CST-1368DR,4917,6175,13411,0.609,551
2022-02-05T16:13:42,42.805,6.029,CST-1368DR,4917,6175,13410,0.609,551
2022-02-05T16:16:44,42.805,6.029,CST-1368DR,4917,6175,13412,0.609,551
2022-02-05T16:19:45,42.805,6.029,CST-1368DR,4917,6176,13413,0.608,551
2022-02-05T16:22:47,42.805,6.029,CST-1368DR,4917,6175,13411,0.609,551
2022-02-05T16:25:48,42.805,6.029,CST-1368DR,4917,6175,13411,0.609,551
2022-02-05T16:28:50,42.805,6.029,CST-1368DR,4917,6175,13412,0.609,551
2022-02-05T16:31:52,42.805,6.029,CST-1368DR,4917,6174,13410,0.609,551
2022-02-05T16:34:53,42.805,6.029,CST-1368DR,4917,6175,13410,0.609,551
2022-02-05T16:37:55,42.805,6.029,CST-1368DR,4917,6173,13407,0.610,551
2022-02-05T16:40:56,42.805,6.029,CST-1368DR,4917,6173,13407,0.610,551
2022-02-05T16:43:58,42.805,6.029,CST-1368DR,4917,6174,13409,0.609,551
2022-02-05T16:46:59,42.805,6.029,CST-1368DR,4917,6174,13409,0.609,551
2022-02-05T16:50:01,42.805,6.029,CST-1368DR,4917,6174,13408,0.610,551
2022-02-05T16:53:03,42.805,6.029,CST-1368DR,4917,6175,13410,0.609,551